Regional Weather Roundup
Issued by NWS

Home | Current Version | Previous Version | Graphics & Text | Print | Product List | Glossary On
Versions: 1 2 3 4 5 6 7 8 9 10 11 12 13 14 15 16 17 18 19 20 21 22 23 24 25 26 27 28 29 30 31 32 33 34 35 36 37 38 39 40 41 42 43 44 45 46 47 48 49 50
000
ASUS43 KTOP 241459
RWRKS

WEATHER ROUNDUP FOR KANSAS
NATIONAL WEATHER SERVICE GOODLAND KS
1000 AM CDT MON APR 24 2017

NOTE:  "FAIR" INDICATES FEW OR NO CLOUDS BELOW 12,000 FEET WITH NO
SIGNIFICANT WEATHER AND/OR OBSTRUCTIONS TO VISIBILITY.

KSZ001>006-013>018-027>032-041>047-241600-
NORTHWEST KANSAS

CITY           SKY/WX    TMP DP  RH WIND       PRES   REMARKS
GOODLAND       SUNNY     62  41  46 N22       29.59S
HAYS           SUNNY     61  39  44 S23G30    29.61S
HILL CITY      SUNNY     63  39  41 SW16G25   29.57F
RUSSELL        SUNNY     61  38  42 S38G52    29.58F
$$

KSZ061>065-074>080-084>089-241600-
SOUTHWEST KANSAS

CITY           SKY/WX    TMP DP  RH WIND       PRES   REMARKS
DODGE CITY     SUNNY     60  38  43 S28G43    29.62F
ELKHART          N/A     67  40  37 SW10        N/A
GARDEN CITY    SUNNY     65  39  38 W17       29.61F
$$

KSZ066>073-081>083-090>101-241600-
SOUTHEAST KANSAS

CITY           SKY/WX    TMP DP  RH WIND       PRES   REMARKS
CHANUTE        SUNNY     62  43  49 SE17      29.88F
COFFEYVILLE    SUNNY     64  44  48 S16       29.89F
HUTCHINSON     MOSUNNY   61  41  47 S29G36    29.74F
MEDICINE LODGE   N/A     58  40  51 S20G30    29.74F
PARSONS        SUNNY     63  42  46 S13G21    29.90F
WICHITA INTL   CLOUDY    61  42  49 S25G37    29.79F
WICHITA JABRA  CLOUDY    61  40  45 S28G38    29.79F
WICHITA MCCONL SUNNY     61  39  45 S26G32    29.80F
WINFIELD       SUNNY     61  42  49 S17G29    29.84F
$$

KSZ007>012-019>026-033>040-048>060-102>105-241600-
NORTHEAST KANSAS

CITY           SKY/WX    TMP DP  RH WIND       PRES   REMARKS
CONCORDIA      SUNNY     61  41  47 S24G37    29.65F
EMPORIA        SUNNY     61  42  49 S21G31    29.83F
LAWRENCE       SUNNY     65  40  39 SE23G31   29.83F
MANHATTAN      SUNNY     64  38  38 S22G35    29.74F
OLATHE IND     SUNNY     64  38  38 S22G30    29.86F
OLATHE EXE     SUNNY     62  37  39 S28G35    29.87F
SALINA         CLOUDY    61  41  47 S28G41    29.68F
TOPEKA BILLARD SUNNY     63  39  41 S20G32    29.81F
TOPEKA FORBES  SUNNY     64  39  39 S24G37    29.81F
$$




USA.gov is the U.S. government's official web portal to all federal, state and local government web resources and services.